This is the latest recevied weather packets stored in our database for station/object NEWPRT. If no packets are shown the sender has not sent any weather packets the latest 10 day(s).
| Time | Temp. | Humidity | Pressure | Rain* | Wind** | Luminosity | Snow |
|---|---|---|---|---|---|---|---|
| 1778175737 | - | 52% | 1021.7 hPa | 0 mm | - | - | - |
| 1778175414 | - | 52% | 1021.7 hPa | 0 mm | - | - | - |
| 1778175092 | - | 51% | 1021.6 hPa | 0 mm | - | - | - |
| 1778174768 | - | 51% | 1021.7 hPa | 0 mm | - | - | - |
| 1778174445 | - | 51% | 1021.8 hPa | 0 mm | - | - | - |
| 1778174122 | - | 51% | 1021.7 hPa | 0 mm | - | - | - |
| 1778173799 | - | 52% | 1021.7 hPa | 0 mm | - | - | - |
| 1778173476 | - | 52% | 1021.8 hPa | 0 mm | - | - | - |
| 1778173153 | - | 55% | 1021.8 hPa | 0 mm | - | - | - |
| 1778172830 | - | 53% | 1021.7 hPa | 0 mm | - | - | - |
| 1778172507 | - | 55% | 1021.7 hPa | 0 mm | - | - | - |
| 1778172184 | - | 55% | 1021.6 hPa | 0 mm | - | - | - |
| 1778171861 | - | 54% | 1021.9 hPa | 0 mm | - | - | - |
| 1778171538 | - | 54% | 1021.7 hPa | 0 mm | - | - | - |
| 1778171215 | - | 53% | 1021.7 hPa | 0 mm | - | - | - |
| 1778170892 | - | 55% | 1021.6 hPa | 0 mm | - | - | - |
| 1778170569 | - | 57% | 1021.8 hPa | 0 mm | - | - | - |
| 1778170246 | - | 57% | 1021.8 hPa | 0 mm | - | - | - |
| 1778169923 | - | 58% | 1021.5 hPa | 0 mm | - | - | - |
| 1778169600 | - | 61% | 1021.6 hPa | 0 mm | - | - | - |
| 1778169277 | - | 57% | 1021.6 hPa | 0 mm | - | - | - |
| 1778168954 | - | 57% | 1021.7 hPa | 0 mm | - | - | - |
| 1778168631 | - | 57% | 1021.5 hPa | 0 mm | - | - | - |
| 1778168308 | - | 60% | 1021.5 hPa | 0 mm | - | - | - |
| 1778167985 | - | 59% | 1021.6 hPa | 0 mm | - | - | - |
* Rain latest hour (hover to see other rain measurements)
** Current wind speed in m/s (hover to see current wind gust speed)